User: anonymous   Login
Location: Unspecified
(0.0000°N, 0.0000°E)
Time: 14:50:00
(UTC+00:00)
Language:

Transit VBN-1 - Orbit

View from above orbital plane
View from above orbital plane
View from above satellite
View from above satellite

Ground track
Ground track

The orbit data is extracted from the following two-line orbital elements,

1   670U 63038B   17206.25468458 +.00000012 +00000-0 +55118-5 0  9999
2   670 090.0781 325.4877 0040405 334.1379 086.6965 13.44273208637795
Epoch (UTC): 25 July 2017 06:06:44
Eccentricity: 0.0040405
inclination: 90.0781°
perigee height: 1063 km
apogee height: 1123 km
right ascension of ascending node: 325.4877°
argument of perigee: 334.1379°
revolutions per day: 13.44273208
mean anomaly at epoch: 86.6965°
orbit number at epoch: 63779

The dashed part of the orbit path shows where the satellite is in the earth's shadow,  

DLR